| time (UTC) | temp F | wind direction | speed MPH | gust MPH | rain 1hr in | rain 24hr in | rain mn in | humidity % | barometer mb |
| 20260510185534 | 59 | 0.0 | 0.0 | 0.00 | 0.00 | 0.00 | 51 | 1012.4 | |
| 20260510185032 | 59 | 0.0 | 0.0 | 0.00 | 0.00 | 0.00 | 51 | 1012.3 | |
| 20260510184530 | 59 | 0.0 | 0.0 | 0.00 | 0.00 | 0.00 | 50 | 1012.3 | |
| 20260510184028 | 60 | 0.0 | 0.0 | 0.00 | 0.00 | 0.00 | 50 | 1012.4 | |
| 20260510183526 | 60 | 0.0 | 0.0 | 0.00 | 0.00 | 0.00 | 49 | 1012.4 | |
| 20260510183024 | 60 | 0.0 | 0.0 | 0.00 | 0.00 | 0.00 | 49 | 1012.4 | |
| 20260510182521 | 61 | 0.0 | 0.0 | 0.00 | 0.00 | 0.00 | 48 | 1012.3 | |
| 20260510182019 | 61 | 154 | 0.0 | 1.0 | 0.00 | 0.00 | 0.00 | 48 | 1012.3 |
| 20260510181517 | 61 | 161 | 1.0 | 2.0 | 0.00 | 0.00 | 0.00 | 48 | 1012.3 |
| 20260510181035 | 62 | 0.0 | 0.0 | 0.00 | 0.00 | 0.00 | 47 | 1012.3 | |
| 20260510180532 | 62 | 0.0 | 0.0 | 0.00 | 0.00 | 0.00 | 46 | 1012.3 | |
| 20260510180028 | 62 | 0.0 | 0.0 | 0.00 | 0.00 | 0.00 | 46 | 1012.3 | |
| 20260510175525 | 62 | 0.0 | 0.0 | 0.00 | 0.00 | 0.00 | 46 | 1012.3 | |
| 20260510175022 | 63 | 0.0 | 0.0 | 0.00 | 0.00 | 0.00 | 45 | 1012.3 | |
| 20260510174520 | 63 | 180 | 0.0 | 1.0 | 0.00 | 0.00 | 0.00 | 45 | 1012.4 |
| 20260510174018 | 63 | 179 | 0.0 | 2.0 | 0.00 | 0.00 | 0.00 | 45 | 1012.4 |
| 20260510173534 | 63 | 184 | 1.0 | 2.0 | 0.00 | 0.00 | 0.00 | 44 | 1012.5 |
| 20260510173032 | 63 | 161 | 0.0 | 2.0 | 0.00 | 0.00 | 0.00 | 43 | 1012.5 |
| 20260510172530 | 64 | 173 | 1.0 | 3.0 | 0.00 | 0.00 | 0.00 | 43 | 1012.6 |
| 20260510172028 | 64 | 178 | 1.0 | 3.0 | 0.00 | 0.00 | 0.00 | 42 | 1012.5 |
| 20260510171525 | 64 | 184 | 2.0 | 3.0 | 0.00 | 0.00 | 0.00 | 42 | 1012.6 |
| 20260510171022 | 64 | 181 | 1.0 | 3.0 | 0.00 | 0.00 | 0.00 | 41 | 1012.6 |
| 20260510170518 | 64 | 184 | 1.0 | 3.0 | 0.00 | 0.00 | 0.00 | 40 | 1012.6 |
| 20260510170035 | 65 | 170 | 0.0 | 1.0 | 0.00 | 0.00 | 0.00 | 39 | 1012.7 |
| 20260510165532 | 65 | 0.0 | 0.0 | 0.00 | 0.00 | 0.00 | 38 | 1012.8 | |
| 20260510165029 | 65 | 125 | 1.0 | 2.0 | 0.00 | 0.00 | 0.00 | 39 | 1012.8 |
| 20260510164526 | 65 | 192 | 1.0 | 2.0 | 0.00 | 0.00 | 0.00 | 39 | 1012.9 |
| 20260510164023 | 66 | 0.0 | 0.0 | 0.00 | 0.00 | 0.00 | 38 | 1013.0 | |
| 20260510163521 | 66 | 202 | 1.0 | 3.0 | 0.00 | 0.00 | 0.00 | 38 | 1012.9 |
| 20260510163041 | 67 | 233 | 1.0 | 3.0 | 0.00 | 0.00 | 0.00 | 38 | 1013.0 |
| 20260510162524 | 67 | 233 | 1.0 | 3.0 | 0.00 | 0.00 | 0.00 | 38 | 1013.0 |
| 20260510162022 | 67 | 245 | 2.0 | 6.0 | 0.00 | 0.00 | 0.00 | 38 | 1013.0 |
| 20260510161520 | 67 | 248 | 2.0 | 4.0 | 0.00 | 0.00 | 0.00 | 38 | 1013.0 |
| 20260510161017 | 67 | 249 | 1.0 | 2.0 | 0.00 | 0.00 | 0.00 | 38 | 1013.1 |
| 20260510160535 | 67 | 269 | 1.0 | 4.0 | 0.00 | 0.00 | 0.00 | 38 | 1013.2 |
| 20260510160034 | 68 | 207 | 1.0 | 2.0 | 0.00 | 0.00 | 0.00 | 37 | 1013.2 |
| 20260510155531 | 68 | 276 | 2.0 | 3.0 | 0.00 | 0.00 | 0.00 | 37 | 1013.3 |
| 20260510155030 | 68 | 280 | 2.0 | 6.0 | 0.00 | 0.00 | 0.00 | 38 | 1013.3 |
| 20260510154528 | 67 | 278 | 1.0 | 4.0 | 0.00 | 0.00 | 0.00 | 38 | 1013.3 |
| 20260510154026 | 67 | 184 | 1.0 | 4.0 | 0.00 | 0.00 | 0.00 | 37 | 1013.3 |
| 20260510153524 | 68 | 129 | 1.0 | 6.0 | 0.00 | 0.00 | 0.00 | 37 | 1013.4 |
| 20260510153022 | 67 | 282 | 3.0 | 8.0 | 0.00 | 0.00 | 0.00 | 38 | 1013.4 |
| 20260510152520 | 67 | 270 | 1.0 | 4.0 | 0.00 | 0.00 | 0.00 | 38 | 1013.5 |
| 20260510152019 | 67 | 299 | 3.0 | 7.0 | 0.00 | 0.00 | 0.00 | 37 | 1013.5 |
| 20260510151516 | 67 | 265 | 3.0 | 8.0 | 0.00 | 0.00 | 0.00 | 38 | 1013.6 |
| 20260510151035 | 67 | 77 | 0.0 | 2.0 | 0.00 | 0.00 | 0.00 | 36 | 1013.6 |
| 20260510150533 | 67 | 294 | 1.0 | 3.0 | 0.00 | 0.00 | 0.00 | 37 | 1013.6 |
| 20260510150031 | 67 | 290 | 3.0 | 7.0 | 0.00 | 0.00 | 0.00 | 37 | 1013.7 |
| 20260510145529 | 67 | 275 | 2.0 | 4.0 | 0.00 | 0.00 | 0.00 | 37 | 1013.8 |
| 20260510145029 | 67 | 289 | 4.0 | 8.0 | 0.00 | 0.00 | 0.00 | 36 | 1013.9 |
| 20260510144525 | 67 | 283 | 5.0 | 10.0 | 0.00 | 0.00 | 0.00 | 37 | 1014.0 |
| 20260510144049 | 67 | 305 | 2.0 | 7.0 | 0.00 | 0.00 | 0.00 | 37 | 1014.0 |
| 20260510144024 | 67 | 305 | 2.0 | 7.0 | 0.00 | 0.00 | 0.00 | 37 | 1014.0 |
| 20260510143522 | 67 | 298 | 4.0 | 9.0 | 0.00 | 0.00 | 0.00 | 38 | 1014.0 |
| 20260510143020 | 67 | 293 | 2.0 | 7.0 | 0.00 | 0.00 | 0.00 | 40 | 1014.1 |
| 20260510142517 | 66 | 266 | 2.0 | 6.0 | 0.00 | 0.00 | 0.00 | 39 | 1014.1 |
| 20260510142049 | 67 | 212 | 1.0 | 3.0 | 0.00 | 0.00 | 0.00 | 38 | 1014.3 |
| 20260510142016 | 67 | 212 | 1.0 | 3.0 | 0.00 | 0.00 | 0.00 | 38 | 1014.3 |
| 20260510141535 | 67 | 52 | 1.0 | 2.0 | 0.00 | 0.00 | 0.00 | 36 | 1014.2 |
| 20260510141033 | 67 | 333 | 2.0 | 8.0 | 0.00 | 0.00 | 0.00 | 37 | 1014.3 |
| 20260510140530 | 67 | 295 | 5.0 | 10.0 | 0.00 | 0.00 | 0.00 | 37 | 1014.3 |
| 20260510140028 | 67 | 272 | 4.0 | 9.0 | 0.00 | 0.00 | 0.00 | 37 | 1014.4 |
| 20260510135526 | 67 | 279 | 4.0 | 10.0 | 0.00 | 0.00 | 0.00 | 39 | 1014.5 |
| 20260510135024 | 67 | 278 | 3.0 | 9.0 | 0.00 | 0.00 | 0.00 | 38 | 1014.6 |
| 20260510134522 | 67 | 339 | 2.0 | 7.0 | 0.00 | 0.00 | 0.00 | 37 | 1014.5 |
| 20260510134021 | 67 | 293 | 4.0 | 9.0 | 0.00 | 0.00 | 0.00 | 39 | 1014.7 |
| 20260510133518 | 66 | 295 | 5.0 | 9.0 | 0.00 | 0.00 | 0.00 | 39 | 1014.7 |
| 20260510133017 | 66 | 287 | 3.0 | 14.0 | 0.00 | 0.00 | 0.00 | 41 | 1014.8 |
| 20260510132535 | 66 | 115 | 1.0 | 3.0 | 0.00 | 0.00 | 0.00 | 39 | 1014.8 |
| 20260510132033 | 66 | 336 | 4.0 | 11.0 | 0.00 | 0.00 | 0.00 | 39 | 1014.9 |
| 20260510131531 | 66 | 292 | 5.0 | 10.0 | 0.00 | 0.00 | 0.00 | 41 | 1014.9 |
| 20260510131029 | 66 | 280 | 1.0 | 6.0 | 0.00 | 0.00 | 0.00 | 41 | 1014.9 |
| 20260510130527 | 66 | 291 | 6.0 | 10.0 | 0.00 | 0.00 | 0.00 | 41 | 1014.9 |
| 20260510130026 | 65 | 325 | 4.0 | 8.0 | 0.00 | 0.00 | 0.00 | 41 | 1015.0 |
| 20260510125524 | 65 | 297 | 2.0 | 7.0 | 0.00 | 0.00 | 0.00 | 41 | 1015.1 |
| 20260510125022 | 64 | 302 | 5.0 | 13.0 | 0.00 | 0.00 | 0.00 | 40 | 1015.2 |
| 20260510124519 | 65 | 280 | 3.0 | 7.0 | 0.00 | 0.00 | 0.00 | 41 | 1015.2 |
| 20260510124015 | 65 | 287 | 3.0 | 8.0 | 0.00 | 0.00 | 0.00 | 41 | 1015.2 |
| 20260510123534 | 65 | 297 | 2.0 | 6.0 | 0.00 | 0.00 | 0.00 | 42 | 1015.2 |
| 20260510123032 | 65 | 301 | 2.0 | 7.0 | 0.00 | 0.00 | 0.00 | 42 | 1015.3 |
| 20260510122530 | 65 | 322 | 5.0 | 13.0 | 0.00 | 0.00 | 0.00 | 42 | 1015.3 |
| 20260510122029 | 65 | 309 | 5.0 | 11.0 | 0.00 | 0.00 | 0.00 | 44 | 1015.4 |
| 20260510121526 | 64 | 293 | 4.0 | 8.0 | 0.00 | 0.00 | 0.00 | 44 | 1015.3 |
| 20260510121024 | 64 | 292 | 4.0 | 11.0 | 0.00 | 0.00 | 0.00 | 44 | 1015.5 |
| 20260510120522 | 64 | 304 | 2.0 | 6.0 | 0.00 | 0.00 | 0.00 | 43 | 1015.5 |
| 20260510120020 | 64 | 306 | 3.0 | 8.0 | 0.00 | 0.00 | 0.00 | 42 | 1015.6 |
| 20260510115519 | 64 | 305 | 3.0 | 9.0 | 0.00 | 0.00 | 0.00 | 43 | 1015.7 |
| 20260510115016 | 63 | 299 | 3.0 | 8.0 | 0.00 | 0.00 | 0.00 | 45 | 1015.7 |
| 20260510114546 | 63 | 280 | 4.0 | 9.0 | 0.00 | 0.00 | 0.00 | 45 | 1015.8 |
| 20260510114032 | 63 | 289 | 4.0 | 8.0 | 0.00 | 0.00 | 0.00 | 45 | 1015.8 |
| 20260510113530 | 64 | 291 | 3.0 | 9.0 | 0.00 | 0.00 | 0.00 | 44 | 1015.8 |
| 20260510113028 | 64 | 287 | 4.0 | 11.0 | 0.00 | 0.00 | 0.00 | 44 | 1015.8 |
| 20260510112526 | 64 | 294 | 4.0 | 9.0 | 0.00 | 0.00 | 0.00 | 44 | 1015.8 |
| 20260510112049 | 64 | 280 | 2.0 | 6.0 | 0.00 | 0.00 | 0.00 | 45 | 1001.5 |
| 20260510112024 | 64 | 280 | 2.0 | 6.0 | 0.00 | 0.00 | 0.00 | 45 | 1015.8 |
| 20260510111522 | 64 | 296 | 4.0 | 11.0 | 0.00 | 0.00 | 0.00 | 44 | 1015.9 |
| 20260510111021 | 63 | 294 | 4.0 | 9.0 | 0.00 | 0.00 | 0.00 | 44 | 1016.0 |
| 20260510110518 | 64 | 285 | 5.0 | 11.0 | 0.00 | 0.00 | 0.00 | 44 | 1016.1 |
| 20260510110017 | 64 | 310 | 5.0 | 11.0 | 0.00 | 0.00 | 0.00 | 44 | 1016.1 |
| 20260510105534 | 64 | 317 | 4.0 | 8.0 | 0.00 | 0.00 | 0.00 | 46 | 1016.0 |
| 20260510105032 | 63 | 271 | 4.0 | 8.0 | 0.00 | 0.00 | 0.00 | 47 | 1016.2 |
| 20260510104530 | 63 | 298 | 3.0 | 9.0 | 0.00 | 0.00 | 0.00 | 44 | 1016.3 |
| 20260510104029 | 63 | 297 | 3.0 | 9.0 | 0.00 | 0.00 | 0.00 | 44 | 1016.3 |
| 20260510103527 | 63 | 315 | 4.0 | 7.0 | 0.00 | 0.00 | 0.00 | 45 | 1016.5 |
| 20260510103025 | 63 | 290 | 4.0 | 11.0 | 0.00 | 0.00 | 0.00 | 46 | 1016.5 |
| 20260510102524 | 63 | 281 | 6.0 | 9.0 | 0.00 | 0.00 | 0.00 | 47 | 1016.6 |
| 20260510102021 | 63 | 281 | 2.0 | 7.0 | 0.00 | 0.00 | 0.00 | 46 | 1016.7 |
| 20260510101519 | 63 | 283 | 4.0 | 9.0 | 0.00 | 0.00 | 0.00 | 47 | 1016.8 |
| 20260510101018 | 62 | 279 | 4.0 | 18.0 | 0.00 | 0.00 | 0.00 | 49 | 1016.8 |
| 20260510100516 | 62 | 268 | 3.0 | 8.0 | 0.00 | 0.00 | 0.00 | 49 | 1016.8 |
| 20260510100034 | 62 | 284 | 3.0 | 7.0 | 0.00 | 0.00 | 0.00 | 48 | 1016.8 |
| 20260510095533 | 62 | 264 | 2.0 | 6.0 | 0.00 | 0.00 | 0.00 | 49 | 1016.8 |
| 20260510095117 | 61 | 283 | 5.0 | 11.0 | 0.00 | 0.00 | 0.00 | 50 | 1017.0 |
| 20260510095030 | 61 | 283 | 5.0 | 11.0 | 0.00 | 0.00 | 0.00 | 50 | 1017.0 |
| 20260510094529 | 61 | 293 | 6.0 | 13.0 | 0.00 | 0.00 | 0.00 | 49 | 1017.0 |
| 20260510094026 | 61 | 299 | 5.0 | 13.0 | 0.00 | 0.00 | 0.00 | 49 | 1017.0 |
| 20260510093525 | 61 | 310 | 2.0 | 6.0 | 0.00 | 0.00 | 0.00 | 49 | 1016.9 |
| 20260510093023 | 61 | 281 | 2.0 | 6.0 | 0.00 | 0.00 | 0.00 | 51 | 1017.0 |
| 20260510092521 | 61 | 281 | 3.0 | 8.0 | 0.00 | 0.00 | 0.00 | 50 | 1017.0 |
| 20260510092020 | 61 | 321 | 4.0 | 10.0 | 0.00 | 0.00 | 0.00 | 49 | 1017.0 |
| 20260510091518 | 61 | 301 | 4.0 | 11.0 | 0.00 | 0.00 | 0.00 | 51 | 1017.0 |
| 20260510091015 | 60 | 280 | 5.0 | 11.0 | 0.00 | 0.00 | 0.00 | 54 | 1017.1 |
| 20260510090534 | 60 | 227 | 2.0 | 7.0 | 0.00 | 0.00 | 0.00 | 55 | 1017.1 |
| 20260510090032 | 60 | 190 | 1.0 | 8.0 | 0.00 | 0.00 | 0.00 | 55 | 1017.2 |
| 20260510085531 | 60 | 297 | 4.0 | 10.0 | 0.00 | 0.00 | 0.00 | 56 | 1017.2 |
| 20260510085028 | 59 | 336 | 3.0 | 10.0 | 0.00 | 0.00 | 0.00 | 57 | 1017.3 |
| 20260510084527 | 59 | 298 | 2.0 | 9.0 | 0.00 | 0.00 | 0.00 | 58 | 1017.4 |
| 20260510084025 | 59 | 290 | 5.0 | 11.0 | 0.00 | 0.00 | 0.00 | 58 | 1017.5 |
| 20260510083524 | 59 | 279 | 6.0 | 11.0 | 0.00 | 0.00 | 0.00 | 59 | 1017.5 |
| 20260510083022 | 58 | 292 | 3.0 | 9.0 | 0.00 | 0.00 | 0.00 | 60 | 1017.6 |
| 20260510082519 | 58 | 293 | 3.0 | 8.0 | 0.00 | 0.00 | 0.00 | 60 | 1017.5 |
| 20260510082019 | 57 | 311 | 2.0 | 6.0 | 0.00 | 0.00 | 0.00 | 61 | 1017.7 |
| 20260510081516 | 57 | 306 | 2.0 | 7.0 | 0.00 | 0.00 | 0.00 | 61 | 1017.7 |
| 20260510081035 | 57 | 300 | 4.0 | 13.0 | 0.00 | 0.00 | 0.00 | 61 | 1017.7 |
| 20260510080533 | 57 | 280 | 5.0 | 10.0 | 0.00 | 0.00 | 0.00 | 62 | 1017.7 |
| 20260510080031 | 56 | 313 | 3.0 | 8.0 | 0.00 | 0.00 | 0.00 | 62 | 1017.8 |
| 20260510075530 | 56 | 293 | 3.0 | 7.0 | 0.00 | 0.00 | 0.00 | 60 | 1017.9 |
| 20260510075027 | 56 | 285 | 5.0 | 11.0 | 0.00 | 0.00 | 0.00 | 62 | 1017.9 |
| 20260510074526 | 55 | 289 | 4.0 | 9.0 | 0.00 | 0.00 | 0.00 | 62 | 1017.8 |
| 20260510074024 | 55 | 304 | 2.0 | 7.0 | 0.00 | 0.00 | 0.00 | 63 | 1017.8 |
| 20260510073522 | 55 | 294 | 4.0 | 9.0 | 0.00 | 0.00 | 0.00 | 64 | 1017.9 |
| 20260510073020 | 54 | 296 | 3.0 | 8.0 | 0.00 | 0.00 | 0.00 | 65 | 1017.9 |
| 20260510072518 | 54 | 312 | 1.0 | 6.0 | 0.00 | 0.00 | 0.00 | 65 | 1017.9 |
| 20260510072016 | 54 | 278 | 4.0 | 9.0 | 0.00 | 0.00 | 0.00 | 65 | 1018.1 |
| 20260510071534 | 53 | 296 | 2.0 | 6.0 | 0.00 | 0.00 | 0.00 | 67 | 1018.1 |
| 20260510071034 | 53 | 272 | 2.0 | 7.0 | 0.00 | 0.00 | 0.00 | 68 | 1018.2 |
| 20260510070531 | 52 | 306 | 3.0 | 8.0 | 0.00 | 0.00 | 0.00 | 70 | 1018.2 |
| 20260510070029 | 52 | 185 | 2.0 | 6.0 | 0.00 | 0.00 | 0.00 | 72 | 1018.2 |
| 20260510065527 | 51 | 265 | 2.0 | 8.0 | 0.00 | 0.00 | 0.00 | 72 | 1018.3 |
| 20260510065027 | 51 | 283 | 2.0 | 7.0 | 0.00 | 0.00 | 0.00 | 75 | 1018.4 |
| 20260510064524 | 51 | 252 | 1.0 | 6.0 | 0.00 | 0.00 | 0.00 | 76 | 1018.4 |
| 20260510064022 | 50 | 258 | 1.0 | 4.0 | 0.00 | 0.00 | 0.00 | 77 | 1018.6 |
| 20260510063520 | 50 | 272 | 3.0 | 4.0 | 0.00 | 0.00 | 0.00 | 77 | 1018.7 |
| 20260510063018 | 49 | 258 | 2.0 | 7.0 | 0.00 | 0.00 | 0.00 | 79 | 1018.8 |
| 20260510062517 | 49 | 256 | 1.0 | 3.0 | 0.00 | 0.00 | 0.00 | 81 | 1018.8 |
| 20260510062034 | 48 | 267 | 1.0 | 3.0 | 0.00 | 0.00 | 0.00 | 82 | 1018.7 |
| 20260510061533 | 48 | 265 | 1.0 | 4.0 | 0.00 | 0.00 | 0.00 | 82 | 1018.7 |
| 20260510061031 | 47 | 231 | 2.0 | 4.0 | 0.00 | 0.00 | 0.00 | 83 | 1018.8 |
| 20260510060529 | 47 | 224 | 2.0 | 4.0 | 0.00 | 0.00 | 0.00 | 83 | 1018.9 |
| 20260510060028 | 46 | 195 | 2.0 | 6.0 | 0.00 | 0.00 | 0.00 | 84 | 1018.8 |
| 20260510055526 | 46 | 235 | 2.0 | 4.0 | 0.00 | 0.00 | 0.00 | 84 | 1018.9 |
| 20260510055024 | 45 | 226 | 1.0 | 4.0 | 0.00 | 0.00 | 0.00 | 85 | 1019.0 |
| 20260510054522 | 45 | 205 | 2.0 | 4.0 | 0.00 | 0.00 | 0.00 | 85 | 1019.0 |
| 20260510054020 | 44 | 180 | 3.0 | 6.0 | 0.00 | 0.00 | 0.00 | 85 | 1019.0 |
| 20260510053519 | 44 | 189 | 2.0 | 4.0 | 0.00 | 0.00 | 0.00 | 86 | 1019.1 |
| 20260510053017 | 43 | 190 | 2.0 | 8.0 | 0.00 | 0.00 | 0.00 | 85 | 1019.1 |
| 20260510052535 | 43 | 175 | 2.0 | 4.0 | 0.00 | 0.00 | 0.00 | 85 | 1019.2 |
| 20260510052033 | 42 | 173 | 2.0 | 3.0 | 0.00 | 0.00 | 0.00 | 85 | 1019.1 |
| 20260510051531 | 42 | 169 | 1.0 | 4.0 | 0.00 | 0.00 | 0.00 | 86 | 1019.1 |
| 20260510051030 | 42 | 176 | 1.0 | 2.0 | 0.00 | 0.00 | 0.00 | 85 | 1019.2 |
| 20260510050528 | 41 | 173 | 1.0 | 3.0 | 0.00 | 0.00 | 0.00 | 85 | 1019.0 |
| 20260510050026 | 41 | 180 | 1.0 | 3.0 | 0.00 | 0.00 | 0.00 | 85 | 1019.1 |
| 20260510045524 | 41 | 179 | 1.0 | 3.0 | 0.00 | 0.00 | 0.00 | 85 | 1019.1 |
| 20260510045022 | 40 | 178 | 2.0 | 3.0 | 0.00 | 0.00 | 0.00 | 85 | 1019.1 |
| 20260510044520 | 40 | 176 | 2.0 | 3.0 | 0.00 | 0.00 | 0.00 | 85 | 1019.1 |
| 20260510044050 | 40 | 173 | 1.0 | 3.0 | 0.00 | 0.00 | 0.00 | 84 | 1019.2 |
| 20260510044019 | 40 | 173 | 1.0 | 3.0 | 0.00 | 0.00 | 0.00 | 84 | 1019.2 |
| 20260510043517 | 39 | 171 | 1.0 | 3.0 | 0.00 | 0.00 | 0.00 | 83 | 1019.2 |
| 20260510043035 | 39 | 0.0 | 0.0 | 0.00 | 0.00 | 0.00 | 82 | 1019.1 | |
| 20260510042533 | 39 | 158 | 0.0 | 2.0 | 0.00 | 0.00 | 0.00 | 82 | 1019.2 |
| 20260510042032 | 39 | 168 | 0.0 | 2.0 | 0.00 | 0.00 | 0.00 | 81 | 1019.3 |
| 20260510041530 | 38 | 0.0 | 0.0 | 0.00 | 0.00 | 0.00 | 81 | 1019.3 | |
| 20260510041028 | 38 | 0.0 | 0.0 | 0.00 | 0.00 | 0.00 | 80 | 1019.3 | |
| 20260510040526 | 38 | 115 | 0.0 | 1.0 | 0.00 | 0.00 | 0.00 | 80 | 1019.3 |
| 20260510040024 | 38 | 0.0 | 0.0 | 0.00 | 0.00 | 0.00 | 80 | 1019.3 | |
| 20260510035522 | 38 | 0.0 | 0.0 | 0.00 | 0.00 | 0.00 | 80 | 1019.3 | |
| 20260510035021 | 38 | 0.0 | 0.0 | 0.00 | 0.00 | 0.00 | 80 | 1019.3 | |
| 20260510034519 | 38 | 0.0 | 0.0 | 0.00 | 0.00 | 0.00 | 79 | 1019.4 | |
| 20260510034048 | 38 | 0.0 | 0.0 | 0.00 | 0.00 | 0.00 | 79 | 1019.4 | |
| 20260510034017 | 38 | 0.0 | 0.0 | 0.00 | 0.00 | 0.00 | 79 | 1019.4 | |
| 20260510033536 | 38 | 0.0 | 0.0 | 0.00 | 0.00 | 0.00 | 79 | 1019.4 | |
| 20260510033034 | 38 | 0.0 | 0.0 | 0.00 | 0.00 | 0.00 | 78 | 1019.4 | |
| 20260510032532 | 38 | 0.0 | 0.0 | 0.00 | 0.00 | 0.00 | 78 | 1019.6 | |
| 20260510032030 | 38 | 0.0 | 0.0 | 0.00 | 0.00 | 0.00 | 78 | 1019.5 | |
| 20260510031528 | 38 | 0.0 | 0.0 | 0.00 | 0.00 | 0.00 | 78 | 1019.5 | |
| 20260510031059 | 38 | 0.0 | 0.0 | 0.00 | 0.00 | 0.00 | 78 | 1019.6 | |
| 20260510031026 | 38 | 0.0 | 0.0 | 0.00 | 0.00 | 0.00 | 78 | 1019.6 | |
| 20260510030525 | 38 | 0.0 | 0.0 | 0.00 | 0.00 | 0.00 | 78 | 1019.6 | |
| 20260510030023 | 38 | 0.0 | 0.0 | 0.00 | 0.00 | 0.00 | 78 | 1019.6 | |
| 20260510025522 | 38 | 0.0 | 0.0 | 0.00 | 0.00 | 0.00 | 78 | 1019.7 | |
| 20260510025019 | 38 | 0.0 | 0.0 | 0.00 | 0.00 | 0.00 | 78 | 1019.7 | |
| 20260510024517 | 38 | 0.0 | 0.0 | 0.00 | 0.00 | 0.00 | 78 | 1019.7 | |
| 20260510024036 | 38 | 0.0 | 0.0 | 0.00 | 0.00 | 0.00 | 78 | 1019.8 | |
| 20260510023535 | 38 | 104 | 1.0 | 2.0 | 0.00 | 0.00 | 0.00 | 78 | 1019.8 |
| 20260510023032 | 38 | 108 | 1.0 | 3.0 | 0.00 | 0.00 | 0.00 | 77 | 1019.7 |
| 20260510022530 | 38 | 0.0 | 0.0 | 0.00 | 0.00 | 0.00 | 77 | 1019.8 | |
| 20260510022028 | 38 | 0.0 | 0.0 | 0.00 | 0.00 | 0.00 | 77 | 1019.8 | |
| 20260510021527 | 38 | 0.0 | 0.0 | 0.00 | 0.00 | 0.00 | 77 | 1019.8 | |
| 20260510021024 | 38 | 0.0 | 0.0 | 0.00 | 0.00 | 0.00 | 77 | 1019.7 | |
| 20260510020523 | 38 | 0.0 | 0.0 | 0.00 | 0.00 | 0.00 | 77 | 1019.8 | |
| 20260510020021 | 38 | 0.0 | 0.0 | 0.00 | 0.00 | 0.00 | 77 | 1019.8 | |
| 20260510015519 | 38 | 0.0 | 0.0 | 0.00 | 0.00 | 0.00 | 76 | 1019.7 | |
| 20260510015017 | 38 | 0.0 | 0.0 | 0.00 | 0.00 | 0.00 | 76 | 1019.7 | |
| 20260510014516 | 38 | 0.0 | 0.0 | 0.00 | 0.00 | 0.00 | 76 | 1019.7 | |
| 20260510014034 | 38 | 0.0 | 0.0 | 0.00 | 0.00 | 0.00 | 76 | 1019.7 | |
| 20260510013532 | 39 | 0.0 | 0.0 | 0.00 | 0.00 | 0.00 | 76 | 1019.6 | |
| 20260510013043 | 39 | 0.0 | 0.0 | 0.00 | 0.00 | 0.00 | 76 | 1019.8 | |
| 20260510012530 | 39 | 0.0 | 0.0 | 0.00 | 0.00 | 0.00 | 76 | 1019.8 | |
| 20260510012028 | 39 | 0.0 | 0.0 | 0.00 | 0.00 | 0.00 | 76 | 1019.7 | |
| 20260510011527 | 39 | 0.0 | 0.0 | 0.00 | 0.00 | 0.00 | 76 | 1019.7 | |
| 20260510011104 | 39 | 0.0 | 0.0 | 0.00 | 0.00 | 0.00 | 76 | 1019.7 | |
| 20260510011025 | 39 | 0.0 | 0.0 | 0.00 | 0.00 | 0.00 | 76 | 1019.7 | |
| 20260510010523 | 39 | 0.0 | 0.0 | 0.00 | 0.00 | 0.00 | 76 | 1019.7 | |
| 20260510010022 | 39 | 0.0 | 0.0 | 0.00 | 0.00 | 0.00 | 76 | 1019.8 | |
| 20260510005520 | 39 | 0.0 | 0.0 | 0.00 | 0.00 | 0.00 | 76 | 1019.9 | |
| 20260510005050 | 39 | 0.0 | 0.0 | 0.00 | 0.00 | 0.00 | 76 | 1019.9 | |
| 20260510005018 | 39 | 0.0 | 0.0 | 0.00 | 0.00 | 0.00 | 76 | 1019.9 | |
| 20260510004516 | 40 | 0.0 | 0.0 | 0.00 | 0.00 | 0.00 | 75 | 1019.9 | |
| 20260510004034 | 40 | 0.0 | 0.0 | 0.00 | 0.00 | 0.00 | 75 | 1019.9 | |
| 20260510003532 | 40 | 0.0 | 0.0 | 0.00 | 0.00 | 0.00 | 75 | 1020.0 | |
| 20260510003031 | 40 | 0.0 | 0.0 | 0.00 | 0.00 | 0.00 | 75 | 1020.0 | |
| 20260510002529 | 40 | 0.0 | 0.0 | 0.00 | 0.00 | 0.00 | 75 | 1020.0 | |
| 20260510002027 | 40 | 0.0 | 0.0 | 0.00 | 0.00 | 0.00 | 75 | 1020.1 | |
| 20260510001525 | 40 | 0.0 | 0.0 | 0.00 | 0.00 | 0.00 | 75 | 1020.2 | |
| 20260510001024 | 41 | 0.0 | 0.0 | 0.00 | 0.00 | 0.00 | 75 | 1020.2 | |
| 20260510000522 | 41 | 0.0 | 0.0 | 0.00 | 0.00 | 0.00 | 75 | 1020.3 | |
| 20260510000020 | 41 | 0.0 | 0.0 | 0.00 | 0.00 | 0.00 | 75 | 1020.2 | |
| 20260509235518 | 41 | 0.0 | 0.0 | 0.00 | 0.00 | 0.00 | 75 | 1020.2 | |
| 20260509235048 | 41 | 0.0 | 0.0 | 0.00 | 0.00 | 0.00 | 75 | 1020.2 | |
| 20260509235016 | 41 | 0.0 | 0.0 | 0.00 | 0.00 | 0.00 | 75 | 1020.2 | |
| 20260509234534 | 41 | 0.0 | 0.0 | 0.00 | 0.00 | 0.00 | 75 | 1020.2 | |
| 20260509234033 | 41 | 0.0 | 0.0 | 0.00 | 0.00 | 0.00 | 75 | 1020.2 | |
| 20260509233531 | 41 | 0.0 | 0.0 | 0.00 | 0.00 | 0.00 | 75 | 1020.3 | |
| 20260509233029 | 42 | 0.0 | 0.0 | 0.00 | 0.00 | 0.00 | 74 | 1020.3 | |
| 20260509232527 | 42 | 0.0 | 0.0 | 0.00 | 0.00 | 0.00 | 74 | 1020.3 | |
| 20260509232025 | 42 | 0.0 | 0.0 | 0.00 | 0.00 | 0.00 | 74 | 1020.3 | |
| 20260509231524 | 42 | 0.0 | 0.0 | 0.00 | 0.00 | 0.00 | 74 | 1020.2 | |
| 20260509231022 | 42 | 0.0 | 0.0 | 0.00 | 0.00 | 0.00 | 74 | 1020.3 | |
| 20260509230520 | 43 | 0.0 | 0.0 | 0.00 | 0.00 | 0.00 | 74 | 1020.4 | |
| 20260509230018 | 43 | 0.0 | 0.0 | 0.00 | 0.00 | 0.00 | 74 | 1020.4 | |
| 20260509225516 | 43 | 0.0 | 0.0 | 0.00 | 0.00 | 0.00 | 74 | 1020.5 | |
| 20260509225035 | 43 | 0.0 | 0.0 | 0.00 | 0.00 | 0.00 | 74 | 1020.4 | |
| 20260509224533 | 43 | 0.0 | 0.0 | 0.00 | 0.00 | 0.00 | 74 | 1020.5 | |
| 20260509224031 | 44 | 0.0 | 0.0 | 0.00 | 0.00 | 0.00 | 74 | 1020.5 | |
| 20260509223529 | 44 | 0.0 | 0.0 | 0.00 | 0.00 | 0.00 | 73 | 1020.4 | |
| 20260509223028 | 44 | 0.0 | 0.0 | 0.00 | 0.00 | 0.00 | 73 | 1020.5 | |
| 20260509222526 | 44 | 0.0 | 0.0 | 0.00 | 0.00 | 0.00 | 73 | 1020.5 | |
| 20260509222024 | 44 | 0.0 | 0.0 | 0.00 | 0.00 | 0.00 | 73 | 1020.5 | |
| 20260509221522 | 44 | 0.0 | 0.0 | 0.00 | 0.00 | 0.00 | 73 | 1020.5 | |
| 20260509221020 | 44 | 0.0 | 0.0 | 0.00 | 0.00 | 0.00 | 73 | 1020.6 | |
| 20260509220518 | 45 | 0.0 | 0.0 | 0.00 | 0.00 | 0.00 | 73 | 1020.6 | |
| 20260509220016 | 45 | 0.0 | 0.0 | 0.00 | 0.00 | 0.00 | 73 | 1020.5 | |
| 20260509215535 | 45 | 0.0 | 0.0 | 0.00 | 0.00 | 0.00 | 72 | 1020.6 | |
| 20260509215034 | 45 | 0.0 | 0.0 | 0.00 | 0.00 | 0.00 | 73 | 1020.5 | |
| 20260509214531 | 45 | 0.0 | 0.0 | 0.00 | 0.00 | 0.00 | 73 | 1020.5 | |
| 20260509214029 | 45 | 0.0 | 0.0 | 0.00 | 0.00 | 0.00 | 72 | 1020.6 | |
| 20260509213526 | 46 | 0.0 | 0.0 | 0.00 | 0.00 | 0.00 | 72 | 1020.6 | |
| 20260509213025 | 46 | 0.0 | 0.0 | 0.00 | 0.00 | 0.00 | 72 | 1020.6 | |
| 20260509212524 | 46 | 0.0 | 0.0 | 0.00 | 0.00 | 0.00 | 72 | 1020.5 | |
| 20260509212022 | 46 | 0.0 | 0.0 | 0.00 | 0.00 | 0.00 | 72 | 1020.6 | |
| 20260509211519 | 46 | 0.0 | 0.0 | 0.00 | 0.00 | 0.00 | 71 | 1020.6 | |
| 20260509211057 | 47 | 0.0 | 0.0 | 0.00 | 0.00 | 0.00 | 72 | 1020.5 | |
| 20260509211017 | 47 | 0.0 | 0.0 | 0.00 | 0.00 | 0.00 | 72 | 1020.5 | |
| 20260509210515 | 47 | 0.0 | 0.0 | 0.00 | 0.00 | 0.00 | 72 | 1020.5 | |
| 20260509210034 | 47 | 0.0 | 0.0 | 0.00 | 0.00 | 0.00 | 71 | 1020.6 | |
| 20260509205532 | 47 | 0.0 | 0.0 | 0.00 | 0.00 | 0.00 | 71 | 1020.6 | |
| 20260509205030 | 47 | 0.0 | 0.0 | 0.00 | 0.00 | 0.00 | 71 | 1020.7 | |
| 20260509204527 | 47 | 0.0 | 0.0 | 0.00 | 0.00 | 0.00 | 71 | 1020.7 | |
| 20260509204026 | 47 | 0.0 | 0.0 | 0.00 | 0.00 | 0.00 | 71 | 1020.8 | |
| 20260509203524 | 48 | 0.0 | 0.0 | 0.00 | 0.00 | 0.00 | 71 | 1020.7 | |
| 20260509203023 | 48 | 0.0 | 0.0 | 0.00 | 0.00 | 0.00 | 70 | 1020.7 | |
| 20260509202520 | 48 | 0.0 | 0.0 | 0.00 | 0.00 | 0.00 | 70 | 1020.7 | |
| 20260509202049 | 48 | 0.0 | 0.0 | 0.00 | 0.00 | 0.00 | 70 | 1020.7 | |
| 20260509202018 | 48 | 0.0 | 0.0 | 0.00 | 0.00 | 0.00 | 70 | 1020.7 | |
| 20260509201516 | 49 | 0.0 | 0.0 | 0.00 | 0.00 | 0.00 | 70 | 1020.7 | |
| 20260509201034 | 49 | 0.0 | 0.0 | 0.00 | 0.00 | 0.00 | 69 | 1020.8 | |
| 20260509200533 | 49 | 0.0 | 0.0 | 0.00 | 0.00 | 0.00 | 69 | 1020.7 | |
| 20260509200030 | 49 | 0.0 | 0.0 | 0.00 | 0.00 | 0.00 | 69 | 1020.7 | |
| 20260509195529 | 49 | 0.0 | 0.0 | 0.00 | 0.00 | 0.00 | 69 | 1020.7 | |
| 20260509195027 | 50 | 0.0 | 0.0 | 0.00 | 0.00 | 0.00 | 68 | 1020.6 | |
| 20260509194525 | 50 | 0.0 | 0.0 | 0.00 | 0.00 | 0.00 | 68 | 1020.7 | |
| 20260509194023 | 50 | 0.0 | 0.0 | 0.00 | 0.00 | 0.00 | 68 | 1020.7 | |
| 20260509193521 | 50 | 0.0 | 0.0 | 0.00 | 0.00 | 0.00 | 68 | 1020.8 | |
| 20260509193020 | 50 | 0.0 | 0.0 | 0.00 | 0.00 | 0.00 | 67 | 1020.7 | |
| 20260509192518 | 51 | 0.0 | 0.0 | 0.00 | 0.00 | 0.00 | 67 | 1020.7 | |
| 20260509192017 | 51 | 0.0 | 0.0 | 0.00 | 0.00 | 0.00 | 67 | 1020.7 | |
| 20260509191534 | 51 | 0.0 | 0.0 | 0.00 | 0.00 | 0.00 | 66 | 1020.6 | |
| 20260509191032 | 51 | 0.0 | 0.0 | 0.00 | 0.00 | 0.00 | 66 | 1020.7 | |
| 20260509190530 | 51 | 0.0 | 0.0 | 0.00 | 0.00 | 0.00 | 66 | 1020.7 | |
| 20260509190029 | 52 | 0.0 | 0.0 | 0.00 | 0.00 | 0.00 | 66 | 1020.6 |